THORAD AGENA D DEB, 5692

Orbit data source: Space-Track

THORAD AGENA D DEB, 5692 is space debris in SSO originally from a launch on Wed, 08 Apr 1970 UTC launched from the Air Force Western Test Range (AFWTR). Debris objects in space refer to the collection of defunct objects orbiting the Earth. Examples of debris include non-operational satellites, rocket bodies, and fragments generated from explosions, collisions, or faulty payload assembly.

Loading next visibility...
Identifier
5692, 1970-025LX
Orbit
SSO
Country
Flag of USUS
Related business
Manufacturer
Unknown
Mission
Spacecraft
Bus & Motor
Unknown
Mass
Unknown
Launch date (UTC)
1970-04-08 (56 years ago)
Launch vehicle
Unknown
Launch site
Air Force Western Test Range (AFWTR)
Object type
Payload
Rocket body
Debris
Shape & HBR
Unknown shape, 0.1 m
Radar Cross Section
Medium (>0.1 m² and <1 m²)

Expand to show TLE details & history
Last TLE update: 1 day ago

TLE from 1 day ago
0 THORAD AGENA D DEB
1 05692U 70025LX  26166.36206406  .00000187  00000-0  32284-3 0  9992
2 05692  99.3862 192.9833 0113646   2.5733  14.3789 13.54343981564139
Epoch: 2026-06-15T08:41Z
TLE epoch observation values (Epoch: 2026-06-15T08:41:22.334Z)
Latitude
17.02978°
Longitude
156.10361°
Altitude
976.715 km
Speed
7.405 km/s
True Right ascension
12h 40m 23s
True Declination
16° 56' 12"
Sunlit
Object was in daylight at epoch
Visualization orbit readout
Latitude
Unknown
Longitude
Unknown
Altitude
Unknown
Speed
Unknown
Apparent Right ascension
Unknown
Apparent Declination
Unknown
Sunlit
N/A
Visualization observer readout
Local Sidereal Time
21:15:55
Azimuth
Unknown
Elevation
Unknown
Doppler factor
Unknown
Orbital elements
Apogee altitude
1,138.057 km
Perigee altitude
969.139 km
Semi-major axis
7,431.735 km
Eccentricity
0.01136
Inclination
99.3862°
RAAN
192.9833°
Arg. of periapsis
2.5733°
True anomaly
14.70681°
Mean anomaly
14.3789°
Eccentric anomaly
14.5424°
Mean motion
3.38772 °/min
Orbital period
106.27 mins
BSTAR
0.00032284

Documentation

Showing up to 5 results
|